PVG1903 LEMD-EGGW

Flight info

Callsign PVG1903
Flight time 1h 55m
Altitude 36000
Route RBO N867 BLV DCT BISKA P87 BELEN DCT DIDIG DCT MOKOR UN873 OLEBA DCT ROGPU DCT DIKRO UM185 LUGIS/N0400F240 M185 TELTU
Aircraft A321/M-SDE3FGHIRWXY/LB1D1

Departure

Time 2026-05-04 19:48
Airport Adolfo Suárez Madrid–Barajas Airport (LEMD)

Arrival

Time 2026-05-04 21:43
Airport London Luton Airport (EGGW)
Time Latitude Longitude Altitude Speed Heading
2026-05-04 19:23 40.47816 -3.57420 2004 ft 0 kts 254°
2026-05-04 19:39 40.47816 -3.57421 2004 ft 1 kts 254°
2026-05-04 19:39 40.47815 -3.57431 2003 ft 1 kts 263°
2026-05-04 19:39 40.47816 -3.57446 2005 ft 2 kts 283°
2026-05-04 19:40 40.47825 -3.57460 2004 ft 3 kts 320°
2026-05-04 19:40 40.47855 -3.57451 2005 ft 7 kts 48°
2026-05-04 19:40 40.47909 -3.57403 2002 ft 11 kts 358°
2026-05-04 19:40 40.47990 -3.57483 2001 ft 18 kts 322°
2026-05-04 19:41 40.48101 -3.57595 1999 ft 22 kts 322°
2026-05-04 19:41 40.48202 -3.57698 1996 ft 24 kts 322°
2026-05-04 19:41 40.48335 -3.57837 1992 ft 26 kts 321°
2026-05-04 19:41 40.48483 -3.57961 1997 ft 23 kts 335°
2026-05-04 19:42 40.48612 -3.58049 2003 ft 20 kts 345°
2026-05-04 19:42 40.48753 -3.58052 2003 ft 21 kts 356°
2026-05-04 19:42 40.48856 -3.58013 2002 ft 12 kts 66°
2026-05-04 19:42 40.48859 -3.57883 1997 ft 17 kts 87°
2026-05-04 19:43 40.48860 -3.57711 1992 ft 21 kts 90°
2026-05-04 19:43 40.48858 -3.57508 1989 ft 24 kts 90°
2026-05-04 19:43 40.48860 -3.57279 1984 ft 26 kts 89°
2026-05-04 19:43 40.48861 -3.57027 1980 ft 29 kts 91°
2026-05-04 19:44 40.48862 -3.56751 1975 ft 31 kts 89°
2026-05-04 19:44 40.48861 -3.56459 1968 ft 34 kts 92°
2026-05-04 19:44 40.48935 -3.56220 1961 ft 24 kts
2026-05-04 19:44 40.49104 -3.56245 1962 ft 25 kts
2026-05-04 19:45 40.49277 -3.56245 1961 ft 25 kts 359°
2026-05-04 19:45 40.49450 -3.56246 1962 ft 26 kts
2026-05-04 19:45 40.49608 -3.56246 1961 ft 26 kts
2026-05-04 19:45 40.49790 -3.56249 1961 ft 26 kts 359°
2026-05-04 19:46 40.49974 -3.56254 1961 ft 27 kts 358°
2026-05-04 19:46 40.50097 -3.56241 1963 ft 8 kts 41°
2026-05-04 19:46 40.50118 -3.56161 1959 ft 11 kts 91°
2026-05-04 19:46 40.50120 -3.56045 1959 ft 13 kts 79°
2026-05-04 19:47 40.50167 -3.55944 1960 ft 13 kts 48°
2026-05-04 19:47 40.50238 -3.55921 1961 ft 0 kts 359°
2026-05-04 19:47 40.50240 -3.55921 1961 ft 0 kts 359°
2026-05-04 19:47 40.50250 -3.55921 1961 ft 7 kts 359°
2026-05-04 19:48 40.50602 -3.55927 1966 ft 95 kts 358°
2026-05-04 19:48 40.51528 -3.55933 1950 ft 168 kts 359°
2026-05-04 19:48 40.52891 -3.55939 2152 ft 211 kts 358°
2026-05-04 19:48 40.54177 -3.56008 3213 ft 201 kts 359°
2026-05-04 19:49 40.55562 -3.55522 4227 ft 207 kts 18°
2026-05-04 19:49 40.56853 -3.54910 5225 ft 189 kts 16°
2026-05-04 19:49 40.58133 -3.54339 5555 ft 208 kts 15°
2026-05-04 19:49 40.59529 -3.53548 5890 ft 228 kts 29°
2026-05-04 19:50 40.60828 -3.52210 6107 ft 251 kts 36°
2026-05-04 19:50 40.61034 -3.51987 6125 ft 255 kts 36°
2026-05-04 19:50 40.62445 -3.50425 5693 ft 293 kts 38°
2026-05-04 19:50 40.63959 -3.48699 6886 ft 284 kts 38°
2026-05-04 19:51 40.65461 -3.47006 7669 ft 286 kts 38°
2026-05-04 19:51 40.66970 -3.45323 8389 ft 290 kts 38°
2026-05-04 19:51 40.68523 -3.43593 9112 ft 294 kts 38°
2026-05-04 19:51 40.70075 -3.41861 9817 ft 299 kts 39°
2026-05-04 19:52 40.71677 -3.40072 10271 ft 313 kts 39°
2026-05-04 19:52 40.73397 -3.38154 10411 ft 336 kts 39°
2026-05-04 19:52 40.75240 -3.36095 10546 ft 357 kts 39°
2026-05-04 19:52 40.77170 -3.33932 10942 ft 368 kts 39°
2026-05-04 19:53 40.79128 -3.31729 11509 ft 373 kts 39°
2026-05-04 19:53 40.81115 -3.29491 12072 ft 378 kts 39°
2026-05-04 19:53 40.83147 -3.27247 12660 ft 382 kts 36°
2026-05-04 19:53 40.85392 -3.25421 13213 ft 385 kts 24°
2026-05-04 19:54 40.87927 -3.24165 13814 ft 387 kts 12°
2026-05-04 19:54 40.90533 -3.23511 14345 ft 388 kts
2026-05-04 19:54 40.93202 -3.22932 14881 ft 391 kts
2026-05-04 19:54 40.95821 -3.22351 15411 ft 395 kts
2026-05-04 19:55 40.98532 -3.21744 15936 ft 398 kts
2026-05-04 19:55 41.01280 -3.21127 16469 ft 401 kts
2026-05-04 19:55 41.04051 -3.20503 16977 ft 405 kts
2026-05-04 19:55 41.06799 -3.19884 17510 ft 408 kts
2026-05-04 19:56 41.09649 -3.19244 18051 ft 412 kts
2026-05-04 19:56 41.12454 -3.18614 18479 ft 415 kts
2026-05-04 19:56 41.15312 -3.17972 18903 ft 418 kts
2026-05-04 19:56 41.18183 -3.17324 19344 ft 421 kts
2026-05-04 19:57 41.21084 -3.16667 19781 ft 424 kts
2026-05-04 19:57 41.24007 -3.16005 20212 ft 427 kts
2026-05-04 19:57 41.26944 -3.15340 20637 ft 430 kts
2026-05-04 19:57 41.29891 -3.14673 21067 ft 432 kts
2026-05-04 19:58 41.32861 -3.14000 21499 ft 435 kts
2026-05-04 19:58 41.35809 -3.13332 21911 ft 438 kts
2026-05-04 19:58 41.38800 -3.12655 22327 ft 441 kts
2026-05-04 19:58 41.41859 -3.11964 22738 ft 444 kts
2026-05-04 19:59 41.44895 -3.11280 23135 ft 447 kts
2026-05-04 19:59 41.47968 -3.10582 23555 ft 450 kts
2026-05-04 19:59 41.51064 -3.09878 23893 ft 453 kts
2026-05-04 19:59 41.54171 -3.09170 24247 ft 456 kts
2026-05-04 20:00 41.57170 -3.08486 24543 ft 459 kts
2026-05-04 20:00 41.60087 -3.07817 24844 ft 461 kts
2026-05-04 20:00 41.63248 -3.07095 25174 ft 464 kts
2026-05-04 20:00 41.66451 -3.06366 25512 ft 466 kts
2026-05-04 20:01 41.69629 -3.05646 25831 ft 468 kts
2026-05-04 20:01 41.72891 -3.04905 26145 ft 471 kts
2026-05-04 20:01 41.76075 -3.04181 26496 ft 473 kts
2026-05-04 20:01 41.79316 -3.03441 26806 ft 475 kts
2026-05-04 20:02 41.82586 -3.02691 27125 ft 478 kts
2026-05-04 20:02 41.85891 -3.01926 27448 ft 480 kts
2026-05-04 20:02 41.89186 -3.01160 27771 ft 483 kts
2026-05-04 20:02 41.92499 -3.00392 28058 ft 485 kts
2026-05-04 20:03 41.95793 -2.99631 28361 ft 487 kts
2026-05-04 20:03 41.99148 -2.98857 28610 ft 490 kts
2026-05-04 20:03 42.02519 -2.98079 28874 ft 493 kts
2026-05-04 20:03 42.05904 -2.97297 29124 ft 495 kts
2026-05-04 20:04 42.09295 -2.96508 29427 ft 495 kts
2026-05-04 20:04 42.12679 -2.95717 29799 ft 494 kts
2026-05-04 20:04 42.16068 -2.94920 30154 ft 494 kts
2026-05-04 20:04 42.19456 -2.94125 30428 ft 494 kts
2026-05-04 20:05 42.22844 -2.93334 30685 ft 494 kts
2026-05-04 20:05 42.26188 -2.92556 30997 ft 493 kts
2026-05-04 20:05 42.29570 -2.91772 31273 ft 492 kts
2026-05-04 20:05 42.32932 -2.90993 31546 ft 492 kts
2026-05-04 20:06 42.36311 -2.90203 31823 ft 491 kts
2026-05-04 20:06 42.39667 -2.89413 32131 ft 491 kts
2026-05-04 20:06 42.43018 -2.88625 32406 ft 489 kts
2026-05-04 20:06 42.46400 -2.88181 32682 ft 483 kts 356°
2026-05-04 20:07 42.49742 -2.88303 32950 ft 480 kts 353°
2026-05-04 20:07 42.53073 -2.88490 33218 ft 479 kts 353°
2026-05-04 20:07 42.56406 -2.88668 33490 ft 479 kts 353°
2026-05-04 20:07 42.59693 -2.88835 33776 ft 478 kts 353°
2026-05-04 20:08 42.63045 -2.89000 34046 ft 478 kts 353°
2026-05-04 20:08 42.66301 -2.89161 34249 ft 477 kts 353°
2026-05-04 20:08 42.69613 -2.89328 34465 ft 477 kts 353°
2026-05-04 20:08 42.72934 -2.89499 34673 ft 476 kts 353°
2026-05-04 20:09 42.76245 -2.89673 34883 ft 476 kts 353°
2026-05-04 20:09 42.79557 -2.89848 35092 ft 476 kts 353°
2026-05-04 20:09 42.82867 -2.90022 35306 ft 475 kts 353°
2026-05-04 20:09 42.86132 -2.90194 35515 ft 475 kts 353°
2026-05-04 20:10 42.89409 -2.90366 35705 ft 475 kts 353°
2026-05-04 20:10 42.92748 -2.90541 35905 ft 474 kts 353°
2026-05-04 20:10 42.96002 -2.90713 36033 ft 475 kts 353°
2026-05-04 20:11 43.02609 -2.91064 36040 ft 475 kts 354°
2026-05-04 20:11 43.09216 -2.91421 36060 ft 476 kts 354°
2026-05-04 20:12 43.15767 -2.91766 36046 ft 476 kts 354°
2026-05-04 20:12 43.22268 -2.92099 36054 ft 477 kts 354°
2026-05-04 20:13 43.28898 -2.92404 36060 ft 479 kts 358°
2026-05-04 20:13 43.35540 -2.91048 36065 ft 484 kts
2026-05-04 20:14 43.42083 -2.89110 36079 ft 485 kts
2026-05-04 20:14 43.48673 -2.87177 36074 ft 485 kts
2026-05-04 20:15 43.55272 -2.85243 36068 ft 485 kts
2026-05-04 20:15 43.61864 -2.83298 36070 ft 485 kts 10°
2026-05-04 20:16 43.68421 -2.81362 36064 ft 484 kts 10°
2026-05-04 20:16 43.75005 -2.79311 36064 ft 485 kts 11°
2026-05-04 20:17 43.81553 -2.77127 36065 ft 485 kts 12°
2026-05-04 20:17 43.88117 -2.74932 36062 ft 485 kts 12°
2026-05-04 20:18 43.94702 -2.72910 36060 ft 484 kts
2026-05-04 20:18 44.01296 -2.71466 36074 ft 483 kts
2026-05-04 20:19 44.07956 -2.70190 36061 ft 483 kts
2026-05-04 20:19 44.14608 -2.68798 36055 ft 484 kts
2026-05-04 20:20 44.21272 -2.67296 36062 ft 484 kts
2026-05-04 20:20 44.27863 -2.65795 36043 ft 484 kts
2026-05-04 20:21 44.34501 -2.64299 36048 ft 484 kts
2026-05-04 20:21 44.44505 -2.62068 36058 ft 485 kts
2026-05-04 20:22 44.51123 -2.60581 36053 ft 485 kts
2026-05-04 20:22 44.57762 -2.59081 36050 ft 485 kts
2026-05-04 20:23 44.64440 -2.57584 36055 ft 485 kts
2026-05-04 20:23 44.71053 -2.56095 36053 ft 485 kts
2026-05-04 20:24 44.77806 -2.54569 36049 ft 485 kts
2026-05-04 20:24 44.84468 -2.53052 36050 ft 485 kts
2026-05-04 20:25 44.91126 -2.51535 36051 ft 485 kts
2026-05-04 20:25 44.97749 -2.50030 36053 ft 485 kts
2026-05-04 20:26 45.04409 -2.48504 36053 ft 485 kts
2026-05-04 20:26 45.11076 -2.46971 36045 ft 485 kts
2026-05-04 20:27 45.17730 -2.45447 36050 ft 485 kts
2026-05-04 20:27 45.24392 -2.43897 36047 ft 484 kts
2026-05-04 20:28 45.30932 -2.42393 36040 ft 484 kts
2026-05-04 20:28 45.37580 -2.40868 36048 ft 484 kts
2026-05-04 20:29 45.44230 -2.39328 36041 ft 483 kts
2026-05-04 20:29 45.50812 -2.37786 36038 ft 483 kts
2026-05-04 20:30 45.57439 -2.36240 36042 ft 483 kts
2026-05-04 20:30 45.64081 -2.34695 36042 ft 483 kts
2026-05-04 20:31 45.70697 -2.33147 36027 ft 483 kts
2026-05-04 20:31 45.77334 -2.31579 36029 ft 483 kts
2026-05-04 20:32 45.83958 -2.30012 36026 ft 483 kts
2026-05-04 20:32 45.90538 -2.28470 36027 ft 483 kts
2026-05-04 20:33 45.97172 -2.26911 36029 ft 482 kts
2026-05-04 20:33 46.03789 -2.25344 36026 ft 482 kts
2026-05-04 20:34 46.10400 -2.23759 36028 ft 482 kts
2026-05-04 20:34 46.16969 -2.22150 36020 ft 482 kts
2026-05-04 20:35 46.23570 -2.20527 36023 ft 481 kts
2026-05-04 20:35 46.30169 -2.18903 36022 ft 481 kts
2026-05-04 20:36 46.36782 -2.17281 36018 ft 481 kts
2026-05-04 20:36 46.43369 -2.15668 36018 ft 481 kts
2026-05-04 20:37 46.49962 -2.14050 36013 ft 481 kts
2026-05-04 20:37 46.56533 -2.12419 36018 ft 481 kts
2026-05-04 20:38 46.63118 -2.10782 36015 ft 481 kts
2026-05-04 20:38 46.69721 -2.09146 36011 ft 480 kts
2026-05-04 20:39 46.76300 -2.07512 36008 ft 480 kts
2026-05-04 20:39 46.82857 -2.05874 36007 ft 480 kts
2026-05-04 20:40 46.89434 -2.04222 36006 ft 480 kts
2026-05-04 20:40 46.96031 -2.02555 35987 ft 481 kts 12°
2026-05-04 20:41 47.02281 -1.99234 35996 ft 479 kts 30°
2026-05-04 20:41 47.07717 -1.93625 35994 ft 478 kts 38°
2026-05-04 20:42 47.13030 -1.87859 36003 ft 479 kts 33°
2026-05-04 20:42 47.19107 -1.83913 35998 ft 480 kts 15°
2026-05-04 20:43 47.25653 -1.81976 36000 ft 480 kts 11°
2026-05-04 20:43 47.32210 -1.80104 35999 ft 480 kts 11°
2026-05-04 20:44 47.38760 -1.78210 35999 ft 480 kts 11°
2026-05-04 20:44 47.45325 -1.76304 35998 ft 480 kts 11°
2026-05-04 20:45 47.51877 -1.74411 35997 ft 480 kts 11°
2026-05-04 20:45 47.58384 -1.72526 35993 ft 479 kts 11°
2026-05-04 20:46 47.64922 -1.70622 35993 ft 479 kts 11°
2026-05-04 20:46 47.71421 -1.68723 35993 ft 479 kts 11°
2026-05-04 20:47 47.77997 -1.66799 35972 ft 480 kts 12°
2026-05-04 20:47 47.84530 -1.64885 35977 ft 481 kts 12°
2026-05-04 20:48 47.91112 -1.62960 35986 ft 482 kts 12°
2026-05-04 20:48 47.97676 -1.61027 35991 ft 482 kts 12°
2026-05-04 20:49 48.04237 -1.59093 35993 ft 483 kts 12°
2026-05-04 20:49 48.10810 -1.57140 35995 ft 482 kts 12°
2026-05-04 20:50 48.17399 -1.55180 35996 ft 482 kts 12°
2026-05-04 20:50 48.22871 -1.53559 35995 ft 482 kts 12°
2026-05-04 20:51 48.29440 -1.51605 35999 ft 482 kts 12°
2026-05-04 20:51 48.37085 -1.49317 36000 ft 481 kts 12°
2026-05-04 20:52 48.42575 -1.47668 36005 ft 481 kts 12°
2026-05-04 20:52 48.49088 -1.45699 36010 ft 480 kts 12°
2026-05-04 20:53 48.55644 -1.43725 36009 ft 480 kts 12°
2026-05-04 20:53 48.62185 -1.41759 36011 ft 480 kts 12°
2026-05-04 20:54 48.68741 -1.39769 36016 ft 480 kts 12°
2026-05-04 20:54 48.75278 -1.37734 36020 ft 480 kts 12°
2026-05-04 20:55 48.81838 -1.35652 36021 ft 480 kts 12°
2026-05-04 20:55 48.88316 -1.33597 36020 ft 480 kts 12°
2026-05-04 20:56 48.94871 -1.31526 36010 ft 480 kts 12°
2026-05-04 20:56 49.01413 -1.29464 36008 ft 481 kts 12°
2026-05-04 20:57 49.07954 -1.27375 36012 ft 481 kts 12°
2026-05-04 20:57 49.14463 -1.25281 36020 ft 481 kts 12°
2026-05-04 20:58 49.21005 -1.23186 36023 ft 481 kts 12°
2026-05-04 20:58 49.27569 -1.21091 36025 ft 481 kts 12°
2026-05-04 20:59 49.34081 -1.18995 36029 ft 481 kts 12°
2026-05-04 20:59 49.40620 -1.16872 36034 ft 480 kts 12°
2026-05-04 21:00 49.47158 -1.14760 36036 ft 480 kts 12°
2026-05-04 21:00 49.53680 -1.12639 36037 ft 480 kts 13°
2026-05-04 21:01 49.59887 -1.09006 36042 ft 476 kts 31°
2026-05-04 21:01 49.65246 -1.03092 36039 ft 474 kts 39°
2026-05-04 21:02 49.70474 -0.96871 36034 ft 474 kts 39°
2026-05-04 21:02 49.76147 -0.91828 36033 ft 476 kts 21°
2026-05-04 21:03 49.82538 -0.89690 35827 ft 476 kts
2026-05-04 21:03 49.85837 -0.89230 35564 ft 476 kts
2026-05-04 21:03 49.89140 -0.88768 35329 ft 478 kts
2026-05-04 21:04 49.92444 -0.88303 35083 ft 479 kts
2026-05-04 21:04 49.95781 -0.87830 34848 ft 481 kts
2026-05-04 21:04 49.99120 -0.87354 34605 ft 481 kts
2026-05-04 21:04 50.02438 -0.86877 34369 ft 481 kts
2026-05-04 21:05 50.05782 -0.86398 34131 ft 481 kts
2026-05-04 21:05 50.09081 -0.85927 33859 ft 483 kts
2026-05-04 21:05 50.12410 -0.85454 33564 ft 484 kts
2026-05-04 21:05 50.15784 -0.84975 33265 ft 484 kts
2026-05-04 21:06 50.19142 -0.84491 32967 ft 485 kts
2026-05-04 21:06 50.22502 -0.84003 32669 ft 485 kts
2026-05-04 21:06 50.25846 -0.83518 32370 ft 486 kts
2026-05-04 21:06 50.29237 -0.83029 32088 ft 486 kts
2026-05-04 21:07 50.32593 -0.82549 31804 ft 486 kts
2026-05-04 21:07 50.35961 -0.82072 31521 ft 487 kts
2026-05-04 21:07 50.39308 -0.81597 31242 ft 487 kts
2026-05-04 21:07 50.42647 -0.81118 30966 ft 487 kts
2026-05-04 21:08 50.46030 -0.80628 30689 ft 487 kts
2026-05-04 21:08 50.49083 -0.80183 30438 ft 487 kts
2026-05-04 21:08 50.52448 -0.79688 30168 ft 487 kts
2026-05-04 21:08 50.55826 -0.79195 29864 ft 488 kts
2026-05-04 21:09 50.59207 -0.78703 29562 ft 488 kts
2026-05-04 21:09 50.62596 -0.78209 29236 ft 488 kts
2026-05-04 21:09 50.65971 -0.77718 28919 ft 487 kts
2026-05-04 21:09 50.69335 -0.77227 28609 ft 483 kts
2026-05-04 21:10 50.72632 -0.76748 28313 ft 481 kts
2026-05-04 21:10 50.75994 -0.76255 28009 ft 478 kts
2026-05-04 21:10 50.79291 -0.75744 27715 ft 475 kts
2026-05-04 21:10 50.82456 -0.74583 27412 ft 472 kts 19°
2026-05-04 21:11 50.85531 -0.72674 26994 ft 469 kts 22°
2026-05-04 21:11 50.88507 -0.70762 26539 ft 465 kts 22°
2026-05-04 21:11 50.91484 -0.68839 26072 ft 460 kts 22°
2026-05-04 21:11 50.94475 -0.66902 25606 ft 455 kts 22°
2026-05-04 21:12 50.97345 -0.65042 25179 ft 451 kts 22°
2026-05-04 21:12 51.00248 -0.63163 24746 ft 447 kts 22°
2026-05-04 21:12 51.03104 -0.61313 24307 ft 443 kts 22°
2026-05-04 21:12 51.05961 -0.59461 23889 ft 440 kts 22°
2026-05-04 21:13 51.08764 -0.57640 23450 ft 436 kts 22°
2026-05-04 21:13 51.11568 -0.55812 22877 ft 431 kts 22°
2026-05-04 21:13 51.14316 -0.54019 22340 ft 427 kts 22°
2026-05-04 21:13 51.17060 -0.52228 21808 ft 423 kts 22°
2026-05-04 21:14 51.19766 -0.50458 21293 ft 419 kts 23°
2026-05-04 21:14 51.22409 -0.48732 20780 ft 415 kts 23°
2026-05-04 21:14 51.25121 -0.46962 20260 ft 411 kts 23°
2026-05-04 21:14 51.27749 -0.45243 19781 ft 408 kts 23°
2026-05-04 21:15 51.29462 -0.44119 19451 ft 405 kts 23°
2026-05-04 21:15 51.32019 -0.42434 18974 ft 402 kts 23°
2026-05-04 21:15 51.34619 -0.40720 18522 ft 399 kts 23°
2026-05-04 21:15 51.37191 -0.39026 17994 ft 397 kts 22°
2026-05-04 21:16 51.39695 -0.37373 17467 ft 393 kts 23°
2026-05-04 21:16 51.42168 -0.35736 16946 ft 389 kts 23°
2026-05-04 21:16 51.44662 -0.34054 16430 ft 385 kts 24°
2026-05-04 21:16 51.47075 -0.32292 15925 ft 382 kts 26°
2026-05-04 21:17 51.49455 -0.30460 15423 ft 378 kts 26°
2026-05-04 21:17 51.51803 -0.28616 14929 ft 374 kts 27°
2026-05-04 21:17 51.54133 -0.26783 14544 ft 371 kts 26°
2026-05-04 21:17 51.56444 -0.24979 14302 ft 370 kts 26°
2026-05-04 21:18 51.58757 -0.23188 14049 ft 363 kts 26°
2026-05-04 21:18 51.60983 -0.21469 13905 ft 346 kts 26°
2026-05-04 21:18 51.63084 -0.19850 14020 ft 322 kts 26°
2026-05-04 21:18 51.65057 -0.18333 14049 ft 309 kts 26°
2026-05-04 21:19 51.66985 -0.16850 14031 ft 308 kts 26°
2026-05-04 21:19 51.68914 -0.15362 14004 ft 307 kts 26°
2026-05-04 21:19 51.70753 -0.13945 13817 ft 306 kts 26°
2026-05-04 21:19 51.72692 -0.12451 13543 ft 305 kts 26°
2026-05-04 21:20 51.74578 -0.10837 13267 ft 303 kts 34°
2026-05-04 21:20 51.76196 -0.08662 13014 ft 302 kts 46°
2026-05-04 21:20 51.77623 -0.06245 12756 ft 302 kts 46°
2026-05-04 21:20 51.79070 -0.03808 12492 ft 301 kts 46°
2026-05-04 21:21 51.80524 -0.01367 12229 ft 300 kts 46°
2026-05-04 21:21 51.81972 0.01062 11981 ft 301 kts 45°
2026-05-04 21:21 51.83431 0.03513 11727 ft 301 kts 45°
2026-05-04 21:21 51.84882 0.05949 11477 ft 301 kts 45°
2026-05-04 21:22 51.86338 0.08396 11231 ft 300 kts 45°
2026-05-04 21:22 51.87764 0.10803 10988 ft 299 kts 45°
2026-05-04 21:22 51.89201 0.13231 10738 ft 299 kts 45°
2026-05-04 21:22 51.90632 0.15654 10489 ft 297 kts 45°
2026-05-04 21:23 51.92152 0.17902 10253 ft 295 kts 34°
2026-05-04 21:23 51.93819 0.19436 10035 ft 293 kts 22°
2026-05-04 21:23 51.95667 0.20729 9889 ft 293 kts 22°
2026-05-04 21:23 51.97535 0.22048 9754 ft 293 kts 22°
2026-05-04 21:24 51.99396 0.23369 9620 ft 292 kts 22°
2026-05-04 21:24 52.01250 0.24689 9487 ft 291 kts 22°
2026-05-04 21:24 52.03101 0.26010 9354 ft 290 kts 22°
2026-05-04 21:24 52.04930 0.27318 9229 ft 290 kts 22°
2026-05-04 21:25 52.06797 0.28654 9094 ft 289 kts 22°
2026-05-04 21:25 52.08704 0.29509 8962 ft 285 kts
2026-05-04 21:25 52.10629 0.29191 8832 ft 278 kts 341°
2026-05-04 21:25 52.12308 0.27832 8698 ft 264 kts 321°
2026-05-04 21:26 52.13537 0.25740 8572 ft 251 kts 303°
2026-05-04 21:26 52.14498 0.23433 8443 ft 244 kts 300°
2026-05-04 21:26 52.15062 0.20870 8314 ft 241 kts 275°
2026-05-04 21:26 52.14885 0.18179 8182 ft 241 kts 251°
2026-05-04 21:27 52.14302 0.15622 8063 ft 241 kts 250°
2026-05-04 21:27 52.13709 0.13072 7923 ft 241 kts 250°
2026-05-04 21:27 52.13111 0.10516 7807 ft 241 kts 250°
2026-05-04 21:27 52.12526 0.08009 7681 ft 240 kts 250°
2026-05-04 21:28 52.11930 0.05441 7553 ft 240 kts 250°
2026-05-04 21:28 52.11348 0.02930 7436 ft 239 kts 250°
2026-05-04 21:28 52.10765 0.00417 7302 ft 239 kts 250°
2026-05-04 21:28 52.10178 -0.02111 7182 ft 238 kts 250°
2026-05-04 21:29 52.09590 -0.04635 7071 ft 237 kts 250°
2026-05-04 21:29 52.09005 -0.07144 6929 ft 237 kts 250°
2026-05-04 21:29 52.08422 -0.09648 6813 ft 237 kts 250°
2026-05-04 21:29 52.07837 -0.12152 6688 ft 236 kts 250°
2026-05-04 21:30 52.07258 -0.14631 6564 ft 236 kts 250°
2026-05-04 21:30 52.06647 -0.17241 6448 ft 258 kts 250°
2026-05-04 21:30 52.05977 -0.20092 6148 ft 283 kts 250°
2026-05-04 21:30 52.05315 -0.22904 5759 ft 288 kts 250°
2026-05-04 21:31 52.03716 -0.28774 5019 ft 281 kts 236°
2026-05-04 21:31 52.02444 -0.31211 5005 ft 284 kts 229°
2026-05-04 21:31 52.01127 -0.33590 5004 ft 282 kts 229°
2026-05-04 21:32 51.99960 -0.36016 5005 ft 266 kts 241°
2026-05-04 21:32 51.99237 -0.38737 5006 ft 263 kts 255°
2026-05-04 21:32 51.98724 -0.41574 5007 ft 262 kts 255°
2026-05-04 21:32 51.98256 -0.43938 5007 ft 263 kts 248°
2026-05-04 21:33 51.97358 -0.46483 5012 ft 265 kts 233°
2026-05-04 21:33 51.96199 -0.48857 5008 ft 265 kts 233°
2026-05-04 21:33 51.95071 -0.51165 5006 ft 265 kts 233°
2026-05-04 21:33 51.93924 -0.53519 5006 ft 265 kts 233°
2026-05-04 21:34 51.92793 -0.55844 5010 ft 265 kts 233°
2026-05-04 21:34 51.91649 -0.58191 5007 ft 264 kts 233°
2026-05-04 21:34 51.90540 -0.60554 5008 ft 264 kts 239°
2026-05-04 21:34 51.89778 -0.63196 5006 ft 251 kts 254°
2026-05-04 21:35 51.89324 -0.65823 5012 ft 234 kts 255°
2026-05-04 21:35 51.88893 -0.68280 5009 ft 223 kts 255°
2026-05-04 21:35 51.88471 -0.70676 5009 ft 222 kts 255°
2026-05-04 21:35 51.88038 -0.73084 5009 ft 222 kts 251°
2026-05-04 21:36 51.87141 -0.75064 5009 ft 224 kts 212°
2026-05-04 21:36 51.85635 -0.75648 4924 ft 232 kts 178°
2026-05-04 21:36 51.84095 -0.74994 4828 ft 230 kts 153°
2026-05-04 21:36 51.82852 -0.73421 4758 ft 232 kts 129°
2026-05-04 21:37 51.82085 -0.71140 4611 ft 231 kts 104°
2026-05-04 21:37 51.81960 -0.68555 4367 ft 228 kts 79°
2026-05-04 21:37 51.82342 -0.66135 4081 ft 225 kts 72°
2026-05-04 21:37 51.82777 -0.63709 3793 ft 223 kts 72°
2026-05-04 21:38 51.83195 -0.61331 3498 ft 218 kts 72°
2026-05-04 21:38 51.83602 -0.59005 3211 ft 211 kts 72°
2026-05-04 21:38 51.83993 -0.56770 2927 ft 200 kts 72°
2026-05-04 21:38 51.84105 -0.56135 2841 ft 195 kts 72°
2026-05-04 21:40 51.84166 -0.55787 2835 ft 188 kts 72°
2026-05-04 21:40 51.84503 -0.53865 2630 ft 172 kts 71°
2026-05-04 21:40 51.84815 -0.52074 2373 ft 159 kts 71°
2026-05-04 21:40 51.85078 -0.50561 2149 ft 145 kts 71°
2026-05-04 21:41 51.85216 -0.49773 2046 ft 141 kts 71°
2026-05-04 21:41 51.85474 -0.48296 1853 ft 136 kts 72°
2026-05-04 21:41 51.85727 -0.46845 1669 ft 133 kts 72°
2026-05-04 21:42 51.85976 -0.45408 1448 ft 133 kts 73°
2026-05-04 21:42 51.86233 -0.43970 1240 ft 133 kts 72°
2026-05-04 21:42 51.86476 -0.42512 1098 ft 134 kts 72°
2026-05-04 21:42 51.86732 -0.41051 897 ft 134 kts 71°
2026-05-04 21:43 51.86983 -0.39599 738 ft 135 kts 71°
2026-05-04 21:43 51.87236 -0.38152 537 ft 133 kts 72°
2026-05-04 21:43 51.87413 -0.37132 522 ft 79 kts 73°
2026-05-04 21:43 51.87472 -0.36808 524 ft 28 kts 73°
2026-05-04 21:44 51.87516 -0.36558 525 ft 23 kts 75°
2026-05-04 21:44 51.87561 -0.36273 520 ft 29 kts 76°
2026-05-04 21:44 51.87626 -0.35941 516 ft 31 kts 52°
2026-05-04 21:44 51.87706 -0.35934 516 ft 13 kts 342°
2026-05-04 21:45 51.87776 -0.36016 517 ft 12 kts 285°
2026-05-04 21:45 51.87775 -0.36139 518 ft 12 kts 261°
2026-05-04 21:45 51.87759 -0.36231 518 ft 11 kts 252°
2026-05-04 21:45 51.87730 -0.36373 519 ft 16 kts 252°
2026-05-04 21:46 51.87720 -0.36437 519 ft 11 kts 257°
2026-05-04 21:46 51.87710 -0.36505 520 ft 13 kts 255°
2026-05-04 21:46 51.87681 -0.36674 522 ft 18 kts 255°
2026-05-04 21:46 51.87669 -0.36823 524 ft 8 kts 287°
2026-05-04 21:47 51.87653 -0.36883 525 ft 7 kts 243°
2026-05-04 21:47 51.87685 -0.36951 523 ft 12 kts 342°
2026-05-04 21:47 51.87786 -0.37010 516 ft 20 kts 342°
2026-05-04 21:47 51.87925 -0.37082 509 ft 19 kts 341°
2026-05-04 21:48 51.88043 -0.37145 508 ft 16 kts 341°
2026-05-04 21:48 51.88152 -0.37203 514 ft 12 kts 341°
2026-05-04 21:48 51.88174 -0.37215 515 ft 11 kts 341°
2026-05-04 21:49 51.88224 -0.37245 517 ft 1 kts 340°
2026-05-04 21:49 51.88234 -0.37276 517 ft 6 kts 283°
2026-05-04 21:49 51.88226 -0.37347 517 ft 7 kts 251°
2026-05-04 21:49 51.88221 -0.37372 517 ft 4 kts 251°
2026-05-04 21:50 51.88213 -0.37412 516 ft 6 kts 251°
2026-05-04 21:50 51.88204 -0.37455 516 ft 6 kts 253°
2026-05-04 21:50 51.88215 -0.37544 516 ft 8 kts 310°
2026-05-04 21:50 51.88234 -0.37572 517 ft 3 kts 326°
2026-05-04 21:51 51.88245 -0.37582 518 ft 0 kts 332°
2026-05-04 21:51 51.88250 -0.37587 519 ft 3 kts 328°
2026-05-04 21:51 51.88264 -0.37609 520 ft 3 kts 315°
2026-05-04 21:51 51.88266 -0.37611 520 ft 0 kts 316°
2026-05-04 21:52 51.88269 -0.37616 520 ft 1 kts 315°
2026-05-04 21:52 51.88278 -0.37633 520 ft 3 kts 309°
2026-05-04 21:52 51.88285 -0.37647 520 ft 2 kts 308°
2026-05-04 21:54 51.88286 -0.37627 520 ft 0 kts 311°
2026-05-04 21:55 51.88288 -0.37623 521 ft 0 kts 267°
2026-05-04 21:55 51.88288 -0.37655 520 ft 0 kts 307°
2026-05-04 21:55 51.88287 -0.37651 521 ft 69 kts 311°